Hot Springs, VA

8:28 AM EDT on April 26, 2017 (GMT -0400)
Ingalls

Weather History for KHSP - October, 2012

Change the Weather History Date:

Tuesday, October 30, 2012

  Actual Average Record
Temperature  
Mean Temperature 26 °F -  
Max Temperature 28 °F 53 °F 69 °F (1996)
Min Temperature 24 °F 38 °F 24 °F (2012)
Degree Days  
Heating Degree Days 39    
Moisture  
Dew Point 27 °F    
Average Humidity 98    
Maximum Humidity 100    
Minimum Humidity 93    
Precipitation  
Precipitation 0.01 in - - ()
Sea Level Pressure  
Sea Level Pressure 29.22 in    
Wind  
Wind Speed 33 mph (West)    
Max Wind Speed 41 mph    
Max Gust Speed 54 mph    
Visibility 3 miles    
Events Snow    
Averages and records for this station are not official NWS values.
T = Trace of Precipitation, MM = Missing Value Source: NWS Daily Summary

Daily Weather History Graph

Daily Weather History Graph

Search for Another Location

Airport or City:

Trip Planner

Search our weather history database for the weather conditions in past years. The results will help you decide how hot, cold, wet, or windy it might be!

Date:

Astronomy

Oct. 30, 2012 Rise Set
Actual Time 7:43 AM EDT 6:22 PM EDT
Civil Twilight 7:16 AM EDT 6:49 PM EDT
Nautical Twilight 6:45 AM EDT 7:20 PM EDT
Astronomical Twilight 6:14 AM EDT 7:50 PM EDT
Moon 6:52 PM EDT (10/30) 8:27 AM EDT (10/30)
Length of Visible Light 11h 33m
Length of Day
10h 38m
Full, 99% of the Moon is Illuminated
Oct 30
Full
Nov 6
Last Quarter
Nov 13
New
Nov 20
First Quarter
Nov 28
Full

Hourly Weather History & Observations

Time (EDT) Temp. Windchill Dew Point Humidity Pressure Visibility Wind Dir Wind Speed Gust Speed Precip Events Conditions
12:15 AM 28.4 °F 11.8 °F 28.4 °F 100% 29.04 in 0.8 mi WNW 34.5 mph 49.5 mph N/A Snow Light Snow
12:35 AM 28.4 °F 11.6 °F 28.4 °F 100% 29.04 in 1.2 mi WNW 35.7 mph 48.3 mph N/A Snow Light Snow
12:55 AM 28.4 °F 10.8 °F 28.4 °F 100% 29.02 in 2.5 mi WNW 40.3 mph 47.2 mph N/A Snow Light Snow
1:15 AM 28.4 °F 11.6 °F 28.4 °F 100% 29.03 in 2.5 mi WNW 35.7 mph 48.3 mph N/A Snow Light Snow
1:35 AM 28.4 °F 11.6 °F 28.4 °F 100% 29.02 in 2.5 mi WNW 35.7 mph 48.3 mph N/A Snow Light Snow
1:55 AM 28.4 °F 11.2 °F 28.4 °F 100% 29.01 in 1.8 mi WNW 38.0 mph 51.8 mph N/A Snow Light Snow
2:15 AM 26.6 °F 8.9 °F 26.6 °F 100% 29.02 in 1.5 mi WNW 36.8 mph 49.5 mph N/A Snow Light Snow
2:35 AM 26.6 °F 8.9 °F 26.6 °F 100% 29.02 in 1.8 mi WNW 36.8 mph 54.1 mph N/A Snow Light Snow
2:55 AM 26.6 °F 8.9 °F 26.6 °F 100% 29.04 in 1.2 mi WNW 36.8 mph 50.6 mph N/A Snow Light Snow
3:15 AM 26.6 °F 8.9 °F 26.6 °F 100% 29.04 in 1.5 mi WNW 36.8 mph 48.3 mph N/A Snow Light Snow
3:35 AM 26.6 °F 8.7 °F 26.6 °F 100% 29.04 in 1.5 mi West 38.0 mph 48.3 mph N/A Snow Light Snow
3:55 AM 26.6 °F 8.5 °F 26.6 °F 100% 29.04 in 7.0 mi WNW 39.1 mph 46.0 mph N/A   Overcast
4:35 AM 26.6 °F 8.9 °F 26.6 °F 100% 29.04 in 2.0 mi West 36.8 mph 47.2 mph N/A Snow Light Snow
4:55 AM 26.6 °F 8.1 °F 24.8 °F 93% 29.04 in 1.5 mi West 41.4 mph 51.8 mph N/A Snow Light Snow
5:15 AM 26.6 °F 8.5 °F 24.8 °F 93% 29.05 in 1.8 mi West 39.1 mph 48.3 mph N/A Snow Light Snow
5:35 AM 26.6 °F 8.7 °F 24.8 °F 93% 29.06 in 2.5 mi West 38.0 mph 50.6 mph N/A Snow Light Snow
5:55 AM 26.6 °F 8.9 °F 24.8 °F 93% 29.07 in 4.0 mi WNW 36.8 mph 47.2 mph N/A   Overcast
6:35 AM 26.6 °F 8.5 °F 24.8 °F 93% 29.08 in 1.2 mi WNW 39.1 mph 49.5 mph N/A Snow Light Snow
6:55 AM 26.6 °F 8.7 °F 24.8 °F 93% 29.06 in 1.2 mi West 38.0 mph 50.6 mph N/A Snow Light Snow
7:15 AM 26.6 °F 8.7 °F 24.8 °F 93% 29.08 in 1.2 mi West 38.0 mph 49.5 mph N/A Snow Light Snow
7:35 AM 24.8 °F 6.2 °F 24.8 °F 100% 29.09 in 1.5 mi WNW 38.0 mph 49.5 mph N/A Snow Light Snow
7:55 AM 26.6 °F 8.9 °F 24.8 °F 93% 29.10 in 5.0 mi West 36.8 mph 46.0 mph N/A   Overcast
8:15 AM 24.8 °F 6.6 °F 24.8 °F 100% 29.11 in 4.0 mi West 35.7 mph 48.3 mph N/A   Overcast
8:35 AM 26.6 °F 9.6 °F 24.8 °F 93% 29.10 in 7.0 mi West 33.4 mph 47.2 mph N/A   Overcast
8:55 AM 26.6 °F 10.0 °F 24.8 °F 93% 29.13 in 4.0 mi West 31.1 mph 44.9 mph N/A   Overcast
9:15 AM 26.6 °F 9.8 °F 24.8 °F 93% 29.14 in 7.0 mi West 32.2 mph 44.9 mph N/A   Overcast
9:35 AM 26.6 °F 9.1 °F 24.8 °F 93% 29.14 in 3.0 mi West 35.7 mph 43.7 mph N/A   Overcast
9:55 AM 26.6 °F 10.0 °F 24.8 °F 93% 29.16 in 3.0 mi West 31.1 mph 43.7 mph N/A   Overcast
10:15 AM 26.6 °F 10.0 °F 24.8 °F 93% 29.16 in 5.0 mi West 31.1 mph 39.1 mph N/A   Overcast
10:35 AM 24.8 °F 7.6 °F 24.8 °F 100% 29.17 in 1.0 mi West 31.1 mph 39.1 mph N/A Snow Light Snow
11:15 AM 24.8 °F 7.9 °F 24.8 °F 100% 29.20 in 0.8 mi West 29.9 mph 36.8 mph 0.01 in Snow Light Snow
11:35 AM 26.6 °F 11.1 °F 26.6 °F 100% 29.20 in 1.8 mi West 26.5 mph 34.5 mph 0.01 in Snow Light Snow
11:55 AM 26.6 °F 11.7 °F 26.6 °F 100% 29.21 in 3.0 mi West 24.2 mph 33.4 mph N/A   Overcast
12:15 PM 26.6 °F 11.7 °F 26.6 °F 100% 29.22 in 3.0 mi West 24.2 mph 32.2 mph N/A   Overcast
12:55 PM 26.6 °F 11.7 °F 26.6 °F 100% 29.23 in 3.0 mi West 24.2 mph 34.5 mph N/A   Overcast
1:15 PM 26.6 °F 12.4 °F 26.6 °F 100% 29.24 in 3.0 mi West 21.9 mph 34.5 mph N/A Snow Light Snow
1:35 PM 26.6 °F 11.4 °F 26.6 °F 100% 29.25 in 2.5 mi West 25.3 mph 32.2 mph N/A Snow Light Snow
1:55 PM 26.6 °F 12.4 °F 26.6 °F 100% 29.27 in 5.0 mi West 21.9 mph 31.1 mph N/A   Overcast
2:15 PM 26.6 °F 12.0 °F 26.6 °F 100% 29.27 in 5.0 mi West 23.0 mph 32.2 mph N/A Snow Light Snow
2:35 PM 26.6 °F 12.7 °F 26.6 °F 100% 29.27 in 5.0 mi West 20.7 mph 28.8 mph N/A   Overcast
2:55 PM 26.6 °F 12.4 °F 26.6 °F 100% 29.27 in 3.0 mi West 21.9 mph 32.2 mph N/A Snow Light Snow
3:15 PM 26.6 °F 13.1 °F 26.6 °F 100% 29.28 in 4.0 mi West 19.6 mph 29.9 mph N/A Snow Light Snow
3:35 PM 26.6 °F 11.7 °F 26.6 °F 100% 29.28 in 2.0 mi West 24.2 mph 28.8 mph N/A Snow Light Snow
3:55 PM 26.6 °F 11.4 °F 26.6 °F 100% 29.29 in 2.5 mi West 25.3 mph 31.1 mph N/A Snow Light Snow
4:15 PM 26.6 °F 10.3 °F 26.6 °F 100% 29.31 in 0.8 mi West 29.9 mph 36.8 mph N/A Snow Light Snow
4:35 PM 26.6 °F 11.4 °F 26.6 °F 100% 29.32 in 1.5 mi West 25.3 mph 36.8 mph N/A Snow Light Snow
4:55 PM 26.6 °F 10.0 °F 26.6 °F 100% 29.31 in 1.5 mi West 31.1 mph 35.7 mph N/A Snow Light Snow
5:15 PM 26.6 °F 10.8 °F 26.6 °F 100% 29.34 in 1.0 mi West 27.6 mph 34.5 mph N/A Snow Light Snow
5:35 PM 26.6 °F 10.8 °F 26.6 °F 100% 29.35 in 1.8 mi West 27.6 mph 34.5 mph N/A Snow Light Snow
5:55 PM 26.6 °F 11.1 °F 26.6 °F 100% 29.35 in 3.0 mi West 26.5 mph 36.8 mph N/A Snow Light Snow
6:15 PM 26.6 °F 10.6 °F 26.6 °F 100% 29.36 in 2.5 mi West 28.8 mph 38.0 mph N/A Snow Light Snow
6:35 PM 26.6 °F 10.8 °F 26.6 °F 100% 29.37 in 4.0 mi West 27.6 mph 33.4 mph N/A Snow Light Snow
7:15 PM 28.4 °F 13.0 °F 26.6 °F 93% 29.39 in 3.0 mi West 28.8 mph 40.3 mph N/A Snow Light Snow
7:35 PM 28.4 °F 12.7 °F 28.4 °F 100% 29.39 in 5.0 mi West 29.9 mph 36.8 mph N/A Snow Light Snow
8:15 PM 28.4 °F 13.8 °F 28.4 °F 100% 29.41 in 4.0 mi West 25.3 mph 36.8 mph N/A Snow Light Snow
8:35 PM 28.4 °F 13.3 °F 28.4 °F 100% 29.42 in 4.0 mi West 27.6 mph 34.5 mph N/A Snow Light Snow
8:55 PM 28.4 °F 14.4 °F 28.4 °F 100% 29.43 in 4.0 mi West 23.0 mph 32.2 mph N/A Snow Light Snow
9:15 PM 28.4 °F 12.7 °F 28.4 °F 100% 29.43 in 4.0 mi West 29.9 mph 36.8 mph N/A Snow Light Snow
9:35 PM 28.4 °F 12.7 °F 28.4 °F 100% 29.44 in 4.0 mi West 29.9 mph 39.1 mph N/A Snow Light Snow
9:55 PM 28.4 °F 13.3 °F 28.4 °F 100% 29.45 in 4.0 mi West 27.6 mph 34.5 mph N/A Snow Light Snow
10:15 PM 28.4 °F 13.0 °F 28.4 °F 100% 29.45 in 4.0 mi West 28.8 mph 39.1 mph N/A Snow Light Snow
10:35 PM 28.4 °F 12.7 °F 28.4 °F 100% 29.45 in 5.0 mi West 29.9 mph 38.0 mph N/A Snow Light Snow
10:55 PM 28.4 °F 13.5 °F 28.4 °F 100% 29.45 in 5.0 mi West 26.5 mph 39.1 mph N/A Snow Light Snow
11:15 PM 28.4 °F 13.0 °F 28.4 °F 100% 29.46 in 5.0 mi West 28.8 mph 38.0 mph N/A Snow Light Snow
11:35 PM 28.4 °F 14.1 °F 28.4 °F 100% 29.46 in 4.0 mi West 24.2 mph 35.7 mph N/A   Overcast
11:55 PM 28.4 °F 14.4 °F 28.4 °F 100% 29.45 in 2.0 mi West 23.0 mph 36.8 mph N/A Snow Light Snow